Location: Milton
(43.5183°N, 79.8775°W)
Time: 11:19:53
(UTC+00:00)

Gurwin Techsat 1B - Pass Details

Date: 16 April 2024
Orbit: 811 x 812 km, 98.9° (Epoch: 26 May)

Event Time Altitude Azimuth Distance (km) Brightness Sun altitude
Rises 08:35:13 0° 18° (NNE) 3,346 12.7 -20.1°
Reaches altitude 10° 08:37:37 10° 22° (NNE) 2,409 11.9 -19.8°
Maximum altitude 08:42:51 57° 101° (E) 958 9.2 -19.0°
Enters shadow 08:47:40 12° 179° (S) 2,242 10.6 -18.3°
